West Palm Beach, FL

7:11 AM EDT on October 14, 2019 (GMT -0400)
Palm Beach International

Weather History for KPBI - May, 2019

Change the Weather History Date:

Tuesday, May 21, 2019

  Actual Average Record
Temperature  
Mean Temperature 80 °F 79 °F  
Max Temperature 87 °F 86 °F 96 °F (2008)
Min Temperature 73 °F 72 °F 55 °F (1894)
Degree Days  
Heating Degree Days 0 0  
Month to date heating degree days 0 0  
Since 1 July heating degree days 144 233  
Cooling Degree Days 15 14  
Month to date cooling degree days 303 264  
Year to date cooling degree days 1228 959  
Growing Degree Days 30 (Base 50)    
Moisture  
Dew Point 68 °F    
Average Humidity 67    
Maximum Humidity 79    
Minimum Humidity 55    
Precipitation  
Precipitation 0.00 in 0.17 in 3.17 in (1901)
Month to date precipitation 5.29 2.44  
Year to date precipitation 21.01 16.64  
Snow  
Snow 0.00 in - - ()
Month to date snowfall 0.0  
Since 1 July snowfall 0.0  
Snow Depth 0.00 in    
Sea Level Pressure  
Sea Level Pressure 29.97 in    
Wind  
Wind Speed 9 mph (ESE)    
Max Wind Speed 17 mph    
Max Gust Speed 27 mph    
Visibility 10 miles    
Events      
T = Trace of Precipitation, MM = Missing Value Source: NWS Daily Summary

Daily Weather History Graph

Daily Weather History Graph

Search for Another Location

Airport or City:

Astronomy

May. 21, 2019 Rise Set
Actual Time 6:30 AM EDT 8:03 PM EDT
Civil Twilight 6:04 AM EDT 8:29 PM EDT
Nautical Twilight 5:34 AM EDT 8:59 PM EDT
Astronomical Twilight 5:02 AM EDT 9:31 PM EDT
Moon 10:54 PM EDT (5/21) 8:48 AM EDT (5/21)
Length of Visible Light 14h 24m
Length of Day
13h 33m
Waning Gibbous, 91% of the Moon is Illuminated
May 21
Waning Gibbous
May 26
Last Quarter
Jun 3
New
Jun 10
First Quarter
Jun 17
Full

Hourly Weather History & Observations

Time (EDT) Temp. Heat Index Dew Point Humidity Pressure Visibility Wind Dir Wind Speed Gust Speed Precip Events Conditions
12:53 AM 80.1 °F 82.9 °F 69.1 °F 69% 29.99 in 10.0 mi ESE 11.5 mph - N/A   Scattered Clouds
1:53 AM 79.0 °F - 68.0 °F 69% 29.97 in 10.0 mi SE 11.5 mph - N/A   Scattered Clouds
2:53 AM 79.0 °F - 66.9 °F 66% 29.95 in 10.0 mi SE 9.2 mph - N/A   Partly Cloudy
3:53 AM 78.1 °F - 66.0 °F 66% 29.95 in 10.0 mi SE 5.8 mph - N/A   Partly Cloudy
4:53 AM 77.0 °F - 66.0 °F 69% 29.94 in 10.0 mi ESE 4.6 mph - N/A   Partly Cloudy
5:53 AM 75.0 °F - 66.9 °F 76% 29.95 in 10.0 mi Calm Calm - N/A   Partly Cloudy
6:53 AM 73.9 °F - 66.9 °F 79% 29.96 in 10.0 mi Calm Calm - N/A   Partly Cloudy
7:53 AM 80.1 °F 82.9 °F 69.1 °F 69% 29.97 in 10.0 mi Calm Calm - N/A   Scattered Clouds
8:53 AM 82.9 °F 86.5 °F 69.1 °F 63% 29.98 in 10.0 mi Calm Calm - N/A   Scattered Clouds
9:53 AM 84.9 °F 89.4 °F 70.0 °F 61% 29.99 in 10.0 mi Variable 4.6 mph - N/A   Scattered Clouds
10:53 AM 84.9 °F 89.4 °F 70.0 °F 61% 29.99 in 10.0 mi East 9.2 mph - N/A   Scattered Clouds
11:53 AM 84.9 °F 88.8 °F 69.1 °F 59% 29.99 in 10.0 mi ESE 11.5 mph - N/A   Scattered Clouds
12:53 PM 86.0 °F 90.1 °F 69.1 °F 57% 29.99 in 10.0 mi ESE 11.5 mph - N/A   Scattered Clouds
1:53 PM 87.1 °F 91.3 °F 69.1 °F 55% 29.98 in 10.0 mi East 11.5 mph - N/A   Scattered Clouds
2:53 PM 86.0 °F 90.7 °F 70.0 °F 59% 29.97 in 10.0 mi East 12.7 mph - N/A   Scattered Clouds
3:53 PM 84.9 °F 89.4 °F 70.0 °F 61% 29.96 in 10.0 mi East 12.7 mph 18.4 mph N/A   Scattered Clouds
4:53 PM 84.9 °F 88.8 °F 69.1 °F 59% 29.95 in 10.0 mi East 17.3 mph - N/A   Scattered Clouds
5:53 PM 84.0 °F 87.0 °F 68.0 °F 58% 29.95 in 10.0 mi East 10.4 mph - N/A   Scattered Clouds
6:53 PM 82.9 °F 85.4 °F 66.9 °F 58% 29.96 in 10.0 mi East 11.5 mph - N/A   Scattered Clouds
7:53 PM 81.0 °F 83.0 °F 66.0 °F 60% 29.96 in 10.0 mi East 13.8 mph - N/A   Scattered Clouds
8:53 PM 80.1 °F 82.3 °F 66.9 °F 64% 29.98 in 10.0 mi East 11.5 mph - N/A   Partly Cloudy
9:53 PM 80.1 °F 81.9 °F 64.9 °F 60% 30.00 in 10.0 mi East 12.7 mph - N/A   Partly Cloudy
10:53 PM 80.1 °F 81.9 °F 64.9 °F 60% 30.02 in 10.0 mi East 13.8 mph - N/A   Partly Cloudy
11:53 PM 80.1 °F 81.7 °F 64.0 °F 58% 30.03 in 10.0 mi East 12.7 mph - N/A   Partly Cloudy